User: anonymous
Location: Unspecified
(0.0000°N, 0.0000°E)
Time: 18:25:34
(UTC+02:00)
Language:

Cosmos 1315 Rocket - Orbit

View from above orbital plane
View from above orbital plane
View from above satellite
View from above satellite

Ground track
Ground track

The orbit data is extracted from the following two-line orbital elements,

1 12904U 81103B   14105.14720563  .00002408  00000-0  17934-3 0  4680
2 12904 081.1780 157.0712 0028892 272.8532 086.9382 15.02260019318581
Epoch (UTC): 15 April 2014 03:31:58
Eccentricity: 0.0028892
inclination: 81.1780°
perigee height: 540 km
apogee height: 580 km
right ascension of ascending node: 157.0712°
argument of perigee: 272.8532°
revolutions per day: 15.02260019
mean anomaly at epoch: 86.9382°
orbit number at epoch: 31858

The dashed part of the orbit path shows where the satellite is in the earth's shadow,  

DLR